Location: Devore Heights
(34.2372°N, 117.4156°W)
Time: 02:14:06
(UTC+00:00)

Vanguard 2 Rocket - Pass Details

Date: 18 September 2024
Orbit: 553 x 3298 km, 32.9° (Epoch: 09 October)

Event Time Altitude Azimuth Distance (km) Brightness Sun altitude
Exits shadow 08:10:41 22° 85° (E) 3,788 10.0 -53.6°
Drops below altitude 10° 08:15:11 10° 80° (E) 5,106 10.8 -53.4°
Sets 08:20:10 0° 78° (ENE) 6,511 11.5 -53.1°
